| time (UTC) | temp F | wind direction | speed knots | gust knots | rain 1hr in | rain 24hr in | rain mn in | humidity % | barometer mb |
| 20260507223100 | 58 | 319 | 4.3 | 9.6 | 0.00 | 0.00 | 0.00 | 75 | 1021.7 |
| 20260507221554 | 58 | 292 | 4.3 | 8.7 | 0.00 | 0.00 | 0.00 | 74 | 1021.8 |
| 20260507220053 | 58 | 275 | 4.3 | 8.7 | 0.00 | 0.00 | 0.00 | 76 | 1022.0 |
| 20260507214558 | 58 | 303 | 6.1 | 9.6 | 0.00 | 0.00 | 0.00 | 75 | 1022.1 |
| 20260507213051 | 59 | 305 | 7.0 | 8.7 | 0.00 | 0.00 | 0.00 | 75 | 1022.1 |
| 20260507211551 | 59 | 300 | 3.5 | 7.8 | 0.00 | 0.00 | 0.00 | 74 | 1021.9 |
| 20260507210050 | 59 | 14 | 4.3 | 7.8 | 0.00 | 0.00 | 0.00 | 76 | 1021.9 |
| 20260507204545 | 58 | 336 | 3.5 | 7.0 | 0.00 | 0.00 | 0.00 | 73 | 1022.1 |
| 20260507203049 | 58 | 312 | 2.6 | 8.7 | 0.00 | 0.00 | 0.00 | 74 | 1022.2 |
| 20260507201542 | 58 | 9 | 4.3 | 9.6 | 0.00 | 0.00 | 0.00 | 74 | 1022.3 |
| 20260507200048 | 58 | 277 | 2.6 | 8.7 | 0.00 | 0.00 | 0.00 | 73 | 1022.2 |
| 20260507194541 | 58 | 1 | 3.5 | 8.7 | 0.00 | 0.00 | 0.00 | 73 | 1022.3 |
| 20260507193036 | 58 | 336 | 2.6 | 7.8 | 0.00 | 0.00 | 0.00 | 73 | 1022.3 |
| 20260507191535 | 58 | 280 | 1.7 | 6.1 | 0.00 | 0.00 | 0.00 | 71 | 1022.4 |
| 20260507190033 | 58 | 248 | 0.9 | 3.5 | 0.00 | 0.00 | 0.00 | 72 | 1022.6 |
| 20260507184529 | 57 | 292 | 0.9 | 2.6 | 0.00 | 0.00 | 0.00 | 71 | 1022.8 |
| 20260507183036 | 57 | 355 | 2.6 | 6.1 | 0.00 | 0.00 | 0.00 | 73 | 1022.8 |
| 20260507181524 | 56 | 321 | 0.9 | 4.3 | 0.00 | 0.00 | 0.00 | 76 | 1023.1 |
| 20260507180036 | 55 | 311 | 0.0 | 6.1 | 0.00 | 0.00 | 0.00 | 76 | 1023.1 |
| 20260507174528 | 55 | 329 | 1.7 | 5.2 | 0.00 | 0.00 | 0.00 | 75 | 1023.3 |
| 20260507173019 | 55 | 288 | 0.0 | 0.9 | 0.00 | 0.00 | 0.00 | 78 | 1023.4 |
| 20260507171517 | 53 | 274 | 0.9 | 4.3 | 0.00 | 0.00 | 0.00 | 78 | 1023.5 |
| 20260507170021 | 53 | 308 | 2.6 | 5.2 | 0.00 | 0.00 | 0.00 | 78 | 1023.6 |
| 20260507164515 | 53 | 7 | 1.7 | 3.5 | 0.00 | 0.00 | 0.00 | 78 | 1023.6 |
| 20260507163014 | 52 | 307 | 0.9 | 7.0 | 0.00 | 0.00 | 0.00 | 80 | 1023.7 |
| 20260507161520 | 52 | 22 | 0.0 | 3.5 | 0.00 | 0.00 | 0.00 | 78 | 1023.7 |
| 20260507160013 | 52 | 7 | 0.9 | 3.5 | 0.00 | 0.00 | 0.00 | 80 | 1023.7 |
| 20260507154510 | 52 | 1 | 1.7 | 7.0 | 0.00 | 0.00 | 0.00 | 81 | 1023.9 |
| 20260507153012 | 52 | 14 | 1.7 | 5.2 | 0.00 | 0.00 | 0.00 | 82 | 1023.7 |
| 20260507151510 | 51 | 24 | 0.0 | 3.5 | 0.00 | 0.00 | 0.00 | 84 | 1023.7 |
| 20260507150007 | 51 | 355 | 0.0 | 2.6 | 0.00 | 0.00 | 0.00 | 84 | 1023.5 |
| 20260507144505 | 50 | 311 | 0.0 | 2.6 | 0.00 | 0.00 | 0.00 | 87 | 1023.6 |
| 20260507143006 | 50 | 310 | 0.0 | 0.9 | 0.00 | 0.00 | 0.00 | 91 | 1023.6 |
| 20260507141504 | 49 | 310 | 0.0 | 0.9 | 0.00 | 0.00 | 0.00 | 92 | 1023.5 |
| 20260507140004 | 49 | 310 | 0.0 | 0.9 | 0.00 | 0.00 | 0.00 | 95 | 1023.5 |
| 20260507134507 | 49 | 310 | 0.0 | 0.9 | 0.00 | 0.00 | 0.00 | 95 | 1023.3 |
| 20260507133002 | 49 | 310 | 0.0 | 0.0 | 0.00 | 0.00 | 0.00 | 95 | 1023.3 |
| 20260507131504 | 49 | 310 | 0.0 | 0.0 | 0.00 | 0.00 | 0.00 | 94 | 1023.3 |
| 20260507130104 | 49 | 310 | 0.0 | 0.0 | 0.00 | 0.00 | 0.00 | 95 | 1023.3 |
| 20260507124559 | 49 | 310 | 0.0 | 0.0 | 0.00 | 0.00 | 0.00 | 95 | 1023.3 |
| 20260507123107 | 49 | 310 | 0.0 | 0.0 | 0.00 | 0.00 | 0.00 | 94 | 1023.4 |
| 20260507121601 | 49 | 310 | 0.0 | 0.0 | 0.00 | 0.00 | 0.00 | 93 | 1023.5 |
| 20260507120056 | 49 | 310 | 0.0 | 0.0 | 0.00 | 0.00 | 0.00 | 92 | 1023.7 |
| 20260507114553 | 50 | 310 | 0.0 | 0.0 | 0.00 | 0.00 | 0.00 | 91 | 1023.7 |
| 20260507113051 | 50 | 310 | 0.0 | 1.7 | 0.00 | 0.00 | 0.00 | 90 | 1023.8 |
| 20260507111549 | 50 | 310 | 0.0 | 1.7 | 0.00 | 0.00 | 0.00 | 88 | 1023.8 |
| 20260507104547 | 50 | 305 | 0.0 | 3.5 | 0.00 | 0.00 | 0.00 | 88 | 1024.0 |
| 20260507103052 | 50 | 306 | 0.0 | 0.9 | 0.00 | 0.00 | 0.00 | 88 | 1024.2 |
| 20260507101548 | 50 | 306 | 0.0 | 2.6 | 0.00 | 0.00 | 0.00 | 88 | 1024.2 |
| 20260507100044 | 50 | 306 | 0.0 | 1.7 | 0.00 | 0.00 | 0.00 | 88 | 1024.3 |
| 20260507094542 | 50 | 306 | 0.0 | 2.6 | 0.00 | 0.00 | 0.00 | 89 | 1024.4 |
| 20260507093042 | 50 | 307 | 0.0 | 1.7 | 0.00 | 0.00 | 0.00 | 91 | 1024.5 |
| 20260507091550 | 51 | 307 | 0.0 | 0.0 | 0.00 | 0.00 | 0.00 | 91 | 1024.5 |
| 20260507090043 | 51 | 307 | 0.0 | 0.9 | 0.00 | 0.00 | 0.00 | 87 | 1024.6 |
| 20260507084540 | 51 | 322 | 0.0 | 3.5 | 0.00 | 0.00 | 0.00 | 86 | 1024.8 |
| 20260507083038 | 51 | 304 | 1.7 | 2.6 | 0.00 | 0.00 | 0.00 | 88 | 1024.9 |
| 20260507081534 | 51 | 288 | 0.0 | 2.6 | 0.00 | 0.00 | 0.00 | 88 | 1024.7 |
| 20260507080031 | 51 | 282 | 0.0 | 3.5 | 0.00 | 0.00 | 0.00 | 90 | 1024.8 |
| 20260507074538 | 51 | 307 | 0.0 | 1.7 | 0.00 | 0.00 | 0.00 | 90 | 1024.8 |
| 20260507073021 | 51 | 307 | 0.0 | 3.5 | 0.00 | 0.00 | 0.00 | 90 | 1024.7 |
| 20260507071519 | 51 | 338 | 0.9 | 2.6 | 0.00 | 0.00 | 0.00 | 91 | 1024.8 |
| 20260507070015 | 51 | 315 | 0.0 | 2.6 | 0.00 | 0.00 | 0.00 | 90 | 1024.7 |
| 20260507064513 | 51 | 300 | 0.0 | 1.7 | 0.00 | 0.00 | 0.00 | 90 | 1024.6 |
| 20260507063013 | 52 | 300 | 0.0 | 4.3 | 0.00 | 0.00 | 0.00 | 89 | 1024.7 |
| 20260507061512 | 52 | 310 | 0.9 | 3.5 | 0.00 | 0.00 | 0.00 | 90 | 1024.7 |
| 20260507060010 | 52 | 322 | 0.0 | 5.2 | 0.00 | 0.00 | 0.00 | 89 | 1024.9 |
| 20260507054510 | 52 | 334 | 0.9 | 4.3 | 0.00 | 0.00 | 0.00 | 91 | 1024.7 |
| 20260507053008 | 52 | 297 | 0.0 | 1.7 | 0.00 | 0.00 | 0.00 | 92 | 1024.8 |
| 20260507051507 | 52 | 293 | 0.0 | 0.0 | 0.00 | 0.00 | 0.00 | 91 | 1024.7 |
| 20260507050006 | 52 | 296 | 0.0 | 0.0 | 0.00 | 0.00 | 0.00 | 92 | 1024.8 |
| 20260507044505 | 52 | 300 | 0.0 | 1.7 | 0.00 | 0.00 | 0.00 | 94 | 1024.8 |
| 20260507043004 | 52 | 297 | 0.9 | 2.6 | 0.00 | 0.00 | 0.00 | 96 | 1024.7 |
| 20260507041506 | 53 | 295 | 0.0 | 0.0 | 0.00 | 0.00 | 0.00 | 97 | 1024.5 |
| 20260507040002 | 53 | 295 | 0.0 | 1.7 | 0.00 | 0.00 | 0.00 | 97 | 1024.5 |
| 20260507034502 | 53 | 295 | 0.0 | 3.5 | 0.00 | 0.00 | 0.00 | 97 | 1024.4 |
| 20260507033002 | 53 | 319 | 1.7 | 4.3 | 0.00 | 0.00 | 0.00 | 96 | 1024.3 |
| 20260507031502 | 53 | 298 | 0.9 | 2.6 | 0.00 | 0.00 | 0.00 | 96 | 1024.2 |
| 20260507030001 | 53 | 288 | 0.0 | 2.6 | 0.00 | 0.00 | 0.00 | 96 | 1024.2 |
| 20260507024606 | 53 | 299 | 1.7 | 4.3 | 0.00 | 0.00 | 0.00 | 96 | 1024.0 |
| 20260507023059 | 53 | 304 | 0.9 | 2.6 | 0.00 | 0.00 | 0.00 | 96 | 1024.2 |
| 20260507021601 | 53 | 311 | 1.7 | 4.3 | 0.00 | 0.00 | 0.00 | 96 | 1024.1 |
| 20260507020059 | 53 | 319 | 0.9 | 4.3 | 0.00 | 0.00 | 0.00 | 96 | 1024.3 |
| 20260507014600 | 53 | 290 | 0.9 | 4.3 | 0.00 | 0.00 | 0.00 | 96 | 1024.2 |
| 20260507013057 | 53 | 307 | 1.7 | 5.2 | 0.00 | 0.00 | 0.00 | 96 | 1024.3 |
| 20260507011556 | 54 | 301 | 1.7 | 4.3 | 0.00 | 0.00 | 0.00 | 95 | 1024.2 |
| 20260507010113 | 55 | 261 | 0.9 | 3.5 | 0.00 | 0.00 | 0.00 | 93 | 1024.3 |
| 20260507004555 | 55 | 276 | 0.9 | 4.3 | 0.00 | 0.00 | 0.00 | 91 | 1024.4 |
| 20260507003055 | 55 | 272 | 2.6 | 6.1 | 0.00 | 0.00 | 0.00 | 91 | 1024.3 |
| 20260507001559 | 56 | 262 | 0.9 | 4.3 | 0.00 | 0.00 | 0.00 | 92 | 1024.4 |
| 20260507000059 | 55 | 260 | 1.7 | 7.0 | 0.00 | 0.00 | 0.00 | 92 | 1024.4 |
| 20260506234559 | 55 | 272 | 0.9 | 7.0 | 0.00 | 0.00 | 0.00 | 93 | 1024.4 |
| 20260506233100 | 56 | 259 | 1.7 | 6.1 | 0.00 | 0.00 | 0.00 | 92 | 1024.4 |
| 20260506231551 | 55 | 258 | 1.7 | 7.8 | 0.00 | 0.00 | 0.00 | 93 | 1024.3 |
| 20260506230052 | 56 | 258 | 1.7 | 7.0 | 0.00 | 0.00 | 0.00 | 91 | 1024.5 |
| 20260506224552 | 56 | 253 | 0.9 | 5.2 | 0.00 | 0.00 | 0.00 | 93 | 1024.5 |